Location: Eurasberg
(48.3353°N, 11.0839°E)
Time: 10:35:14
(UTC+00:00)

Cosmos 1833 Rocket - Pass Details

Date: 18 January 2026
Orbit: 831 x 839 km, 71.0° (Epoch: 11 February)

Event Time Altitude Azimuth Distance (km) Brightness Sun altitude
Exits shadow 04:22:09 17° 194° (SSW) 1,966 4.5 -25.7°
Drops below altitude 10° 04:23:34 10° 187° (S) 2,438 5.0 -25.4°
Sets 04:26:08 0° 179° (S) 3,366 5.9 -25.0°
